Location: Mahannah Oil Field
(37.4664°N, 96.6003°W)
Time: 01:31:45
(UTC+00:00)

Tiros 1 despin weight - Pass Details

Date: 28 January 2021
Orbit: 593 x 642 km, 48.2° (Epoch: 25 February)

Event Time Altitude Azimuth Distance (km) Brightness Sun altitude
Rises 00:12:21 0° 306° (NW) 2,864 ? -5.8°
Reaches altitude 10° 00:14:48 10° 314° (NW) 1,951 ? -6.3°
Maximum altitude 00:18:59 38° 24° (NNE) 911 ? -7.1°
Drops below altitude 10° 00:23:08 10° 93° (E) 1,925 ? -7.9°
Enters shadow 00:23:35 - 96° (E) 2,089 ? -7.9°
Sets 00:25:31 0° 102° (ESE) 2,821 - -8.3°
